Theta_e
301 302 303 305 306 308 311 317 320 321 323 324 324 324 325 324 323 322 324 324 324 324 323 323 322 321 321 322 322 323 322 323 323 324 324 324 323 323 322 323 322 321 321 321 321 319 320 320 319 319 318 317 318 318 318 317 317 316 315 313 314 314 315 312 310 310 313 315 314 314 314 313 314 312 312 312 312 312 311 311 311 310 311 310 312
300 301 302 302 303 305 308 312 315 317 319 321 322 324 325 325 324 324 323 323 324 324 324 323 324 324 323 322 322 322 322 321 322 323 324 324 324 323 323 323 322 322 321 320 320 320 320 320 320 320 319 318 318 318 317 315 316 315 313 314 311 315 315 312 311 312 309 313 311 310 308 307 307 306 306 307 307 309 310 310 309 310 310 310 309
300 301 301 301 301 302 304 308 313 316 318 319 321 322 324 324 325 325 325 324 324 324 324 324 324 324 324 323 323 322 323 324 324 324 323 323 324 324 323 323 323 322 322 320 321 321 321 321 321 320 319 318 316 316 316 316 315 315 314 316 314 309 313 309 311 315 312 305 306 307 306 304 306 303 304 306 308 306 306 308 307 308 309 307 307
299 300 300 301 300 300 301 303 307 313 316 317 318 320 322 323 324 325 326 326 325 325 323 325 325 324 324 323 320 323 322 321 322 322 322 322 323 324 324 324 323 323 323 322 321 322 321 321 321 320 320 319 319 318 317 316 316 315 315 314 315 314 311 310 312 313 314 308 305 306 307 306 304 301 302 309 303 306 307 307 306 308 304 304 305
299 300 301 301 301 301 301 302 304 307 311 315 318 319 321 322 324 325 326 326 326 325 325 325 324 322 322 318 316 316 315 317 317 321 322 322 322 322 323 323 323 323 323 323 322 322 322 321 321 321 320 320 319 319 318 318 317 317 316 315 314 315 314 309 308 311 313 315 311 303 303 301 302 301 303 303 300 309 307 305 304 303 305 309 309
299 299 300 301 301 301 301 300 301 302 305 309 314 318 319 321 323 324 325 325 326 326 326 325 324 323 321 321 320 320 320 319 319 321 322 321 322 323 323 323 323 323 323 323 323 322 322 322 321 321 320 320 319 320 319 319 318 317 317 317 315 315 316 312 310 307 314 313 315 315 310 304 299 302 306 301 303 305 309 306 305 306 307 311 311
299 299 300 300 301 301 301 301 301 301 303 305 309 314 318 320 321 323 324 325 326 326 326 324 324 323 323 323 323 322 321 322 324 324 323 324 324 323 324 323 324 323 323 324 324 323 322 322 322 321 321 321 320 319 319 319 319 319 318 317 317 316 315 314 314 311 310 313 314 315 314 309 308 308 306 303 307 308 310 310 313 313 314 311 312
298 299 300 300 301 301 302 302 302 302 303 304 306 308 313 317 320 321 323 323 325 326 325 325 324 323 323 323 323 323 322 323 323 324 324 324 323 323 324 324 324 324 324 324 324 324 323 323 323 322 322 322 320 320 320 320 319 319 318 318 318 317 316 315 315 312 312 311 312 313 312 312 310 309 311 312 311 308 311 313 313 314 313 313 313
298 298 299 299 299 301 303 303 303 303 303 303 305 306 309 313 317 319 321 322 323 324 325 324 324 324 323 323 322 323 324 324 324 322 322 323 323 323 323 324 324 324 325 325 325 325 323 323 323 323 322 322 320 321 320 320 319 319 316 316 317 317 317 317 315 314 312 313 309 311 313 313 313 314 314 314 311 309 310 312 313 310 310 310 313
298 298 298 299 299 301 303 304 304 303 303 304 304 306 308 311 315 317 319 321 322 322 323 324 324 323 323 323 322 322 322 323 323 323 322 321 322 322 323 324 324 324 325 325 325 325 324 323 322 322 322 322 320 321 321 320 320 319 319 318 317 317 317 316 316 316 315 315 315 314 312 313 313 313 313 314 313 313 309 311 313 312 312 311 311
296 297 298 298 299 300 302 302 303 304 304 304 304 306 307 310 314 314 317 320 321 321 322 323 323 323 323 323 323 322 322 322 321 321 322 321 321 322 322 323 323 324 324 325 325 325 325 324 323 323 323 322 320 321 321 321 321 321 320 318 317 317 317 317 316 316 317 316 316 316 315 314 313 312 313 313 313 311 310 311 312 313 313 313 313
295 296 296 297 297 299 301 301 301 302 303 304 304 305 306 307 311 315 317 317 318 320 321 322 322 323 323 323 323 323 323 323 322 321 321 321 321 321 321 321 321 323 323 324 324 325 325 325 323 323 323 323 322 322 322 322 322 321 321 320 319 318 319 318 318 317 317 317 317 318 317 317 317 316 316 316 315 314 313 311 310 309 311 312 311
294 294 295 295 296 297 298 300 300 300 301 302 303 304 305 306 306 309 313 316 318 319 319 320 321 322 322 323 323 323 323 323 323 322 322 321 321 320 320 319 319 320 321 322 323 324 324 324 324 323 323 323 323 323 322 322 322 321 321 320 320 319 319 319 318 318 318 317 317 319 319 318 318 319 319 317 317 317 315 313 313 314 312 310 307
293 293 294 294 295 296 297 298 299 299 300 301 302 302 303 304 305 305 307 310 313 315 318 319 320 321 322 323 323 322 322 322 323 323 323 322 321 320 320 320 320 320 320 321 323 323 323 324 324 324 324 324 323 323 323 322 322 321 320 319 319 320 319 318 318 318 318 318 318 318 319 319 319 320 319 319 317 315 314 313 313 310 311 311 308
292 293 293 293 294 295 296 297 297 298 299 300 301 301 301 301 302 303 304 306 307 308 310 313 317 318 320 321 322 322 322 322 322 322 322 322 322 321 321 320 319 320 320 321 320 321 322 322 323 323 323 323 322 321 321 321 321 320 319 319 319 319 319 319 318 318 318 318 318 319 319 319 320 320 320 318 318 317 316 315 313 310 307 307 305
292 292 293 293 294 295 296 296 297 297 298 299 299 300 300 300 300 301 302 303 304 305 306 307 309 312 313 316 319 320 320 320 321 320 320 321 322 321 321 320 320 320 320 319 319 320 320 320 320 321 322 322 321 321 320 320 319 319 319 318 318 318 319 318 319 319 318 319 318 319 319 319 320 320 319 319 318 318 317 317 315 313 310 305 300
291 292 292 293 294 294 295 295 296 296 297 297 298 298 298 298 299 299 300 301 302 302 303 304 305 306 308 310 313 315 317 318 319 320 320 320 319 320 320 320 320 319 319 318 317 317 318 319 319 319 320 320 320 319 319 319 318 318 318 318 318 318 318 318 319 319 319 320 319 319 319 319 319 319 318 318 319 318 319 318 317 315 313 309 302
291 292 293 293 293 294 294 295 295 295 296 296 297 297 297 297 298 298 299 300 301 301 301 301 302 303 304 305 306 308 312 314 316 317 317 317 317 317 317 317 318 318 318 318 316 316 316 314 318 318 319 319 319 319 318 318 318 317 317 318 319 318 317 318 319 319 319 320 319 319 319 319 319 319 318 318 317 318 317 317 316 316 315 312 309
291 292 292 293 293 293 294 294 295 295 296 296 297 297 297 297 297 296 297 298 299 299 300 301 300 301 302 303 302 303 304 306 308 310 311 313 315 315 315 316 316 316 316 316 316 316 316 316 317 317 318 318 318 318 318 318 317 317 318 318 318 318 318 318 319 319 320 319 318 318 319 319 318 315 313 312 312 313 313 312 311 311 310 312 310
291 291 292 292 293 293 293 294 294 294 295 296 296 297 297 297 296 297 297 297 298 299 299 300 300 299 301 301 301 301 301 302 303 304 306 307 310 311 313 313 314 313 314 315 315 315 315 316 316 316 316 317 317 317 317 317 318 319 319 318 319 318 318 318 318 319 319 319 318 317 315 312 311 310 309 309 309 309 310 309 308 307 305 305 307
291 291 291 292 292 293 294 294 294 295 295 295 295 296 296 297 297 297 296 296 297 298 297 298 298 299 298 300 301 300 301 301 300 301 302 304 305 305 307 309 307 310 310 312 313 314 315 315 316 315 316 316 316 316 317 317 318 318 319 319 319 319 318 318 318 317 317 317 314 311 309 309 309 307 305 305 304 304 303 303 303 302 300 301 303
290 291 291 291 292 292 293 294 294 294 295 294 295 295 295 295 296 296 296 296 296 297 296 296 297 297 297 299 299 299 300 300 300 302 303 303 304 305 306 306 307 308 307 309 310 312 312 313 314 314 314 315 315 316 316 318 317 318 318 319 319 318 318 318 317 315 313 311 309 306 303 303 303 301 301 300 300 299 299 297 297 297 296 296 297
290 290 291 291 291 291 292 292 293 293 294 294 294 294 295 295 295 295 295 296 296 296 295 295 295 296 298 298 298 299 299 300 302 304 305 305 306 307 308 308 308 309 308 308 308 309 310 311 311 312 313 313 314 315 316 317 318 318 318 318 318 318 317 315 314 311 309 307 304 301 300 299 298 295 294 293 294 293 293 293 292 292 291 291 292
289 290 290 291 291 291 292 291 292 293 293 293 294 294 294 294 295 295 295 295 296 296 295 294 295 295 296 296 296 297 298 301 303 305 305 306 307 307 307 307 308 308 308 308 308 308 308 308 309 309 310 312 314 315 316 317 318 318 318 317 315 314 313 312 309 307 305 303 301 298 296 295 293 291 291 289 289 289 289 288 287 287 287 286 286
289 289 289 290 290 290 291 291 291 292 292 293 293 294 294 294 294 294 295 295 295 295 294 294 294 294 295 295 296 295 296 300 302 304 304 305 305 305 306 306 307 306 306 306 306 306 307 307 309 310 311 313 314 315 315 316 316 314 312 308 306 304 303 302 302 301 298 299 297 293 291 290 289 287 287 286 286 285 285 285 285 284 284 283 283
288 288 288 289 289 290 290 291 291 291 291 292 293 293 294 294 294 294 294 295 295 294 293 293 293 293 294 293 293 293 295 297 299 300 301 302 302 303 304 304 305 306 305 304 306 307 307 307 308 310 311 312 313 313 313 311 308 306 303 301 299 297 296 295 294 294 294 293 291 290 289 288 288 286 285 285 285 284 284 284 283 282 281 281 281
288 288 288 288 289 289 290 290 291 291 291 291 292 292 293 293 293 294 294 294 294 294 293 292 292 291 292 293 292 291 292 292 294 297 299 300 299 298 299 300 299 301 301 302 301 303 302 306 306 308 308 308 307 306 305 303 302 300 298 296 294 292 291 291 290 289 288 288 287 286 286 285 285 285 284 283 283 283 283 282 281 281 281 281 280
287 287 287 287 288 289 289 290 290 290 291 291 291 292 292 293 293 293 293 293 294 293 292 292 291 291 292 292 291 290 289 290 291 294 297 297 297 297 296 296 296 297 297 296 298 299 299 300 300 301 302 303 303 302 301 299 298 296 295 293 292 289 287 286 286 286 285 285 285 285 284 284 283 283 283 282 282 281 281 280 280 280 280 280 280
286 286 286 286 286 288 289 289 290 289 290 290 290 291 292 292 293 293 293 293 293 292 292 292 291 291 291 291 290 289 289 289 290 293 296 296 296 295 294 293 293 294 295 294 297 297 295 295 296 297 298 299 299 298 298 296 295 293 291 289 288 286 284 284 284 284 284 284 284 284 285 285 285 285 285 284 283 283 281 280 280 281 281 280 280
284 285 285 286 286 287 288 289 289 289 289 289 290 290 291 291 291 292 292 293 293 292 292 292 291 291 291 290 288 287 287 287 291 294 294 292 291 291 291 291 292 291 291 292 293 293 294 294 294 294 295 297 297 296 291 292 292 290 288 287 286 285 284 283 282 283 283 283 284 284 285 285 285 285 286 286 286 286 285 284 282 281 280 280 280
283 284 285 285 286 287 288 288 289 289 289 289 289 290 290 290 291 291 292 292 292 292 292 292 292 292 291 289 287 287 285 287 290 291 292 291 292 290 290 289 289 290 290 290 292 293 292 292 293 293 292 293 293 292 291 292 291 290 287 286 285 285 285 284 283 282 282 282 282 282 282 283 284 284 285 286 286 286 287 287 287 286 284 281 280
283 284 284 285 286 287 287 288 288 289 288 288 288 289 289 289 290 291 291 292 292 291 291 291 292 292 291 290 288 287 286 287 289 291 291 289 289 289 289 289 289 289 289 289 290 290 291 291 291 291 291 291 291 290 292 291 290 289 287 286 285 285 284 283 283 282 282 282 282 282 281 281 281 281 282 283 284 285 285 286 286 286 286 286 285
283 283 284 285 285 286 287 288 288 289 288 288 288 288 288 289 289 290 290 291 291 291 291 291 291 291 291 290 288 288 288 288 289 289 288 288 288 288 287 287 287 287 288 288 289 289 289 289 290 289 289 289 290 290 290 290 289 288 288 286 285 284 283 283 283 283 283 282 282 281 281 282 282 282 282 280 281 282 284 284 284 284 284 285 285
283 284 284 284 285 286 287 287 288 288 288 288 288 288 288 289 289 289 289 289 290 290 290 290 290 290 290 289 288 288 288 288 288 288 287 287 287 286 286 287 287 287 288 288 288 288 288 288 288 288 288 289 289 289 290 290 290 289 288 287 284 283 283 283 282 282 282 282 282 282 282 281 281 281 280 281 281 280 280 281 280 280 280 281 282
283 283 283 284 285 285 286 286 287 287 287 287 288 288 288 289 289 288 289 289 289 289 289 289 289 290 289 288 287 287 288 287 287 287 287 286 286 286 286 286 287 287 287 287 287 287 287 287 288 288 288 287 288 289 289 289 288 288 287 285 283 282 282 281 281 281 281 282 282 283 283 282 282 281 282 281 281 280 280 280 280 279 279 278 277
283 283 283 283 284 284 285 286 287 287 287 287 287 288 288 288 289 288 288 288 288 288 289 289 289 289 289 288 287 287 287 287 287 286 286 286 285 285 285 285 286 286 286 286 286 287 286 286 287 287 287 286 287 288 288 288 287 287 286 282 282 281 281 280 280 281 281 282 282 283 283 283 282 282 283 283 282 280 280 279 279 278 276 275 275
283 283 283 284 284 284 285 286 286 286 285 286 287 288 288 288 288 288 287 287 287 287 288 288 288 289 288 287 286 286 287 287 287 286 286 285 285 285 285 286 286 286 286 285 285 285 286 286 286 286 285 285 285 287 287 287 286 286 284 281 281 280 280 280 280 281 281 282 282 282 282 282 282 281 283 283 282 280 278 277 277 276 276 274 272
282 283 283 283 284 284 285 285 284 284 285 286 287 287 287 287 287 287 287 287 287 287 288 288 288 289 288 287 286 286 286 286 286 286 285 285 284 285 285 285 285 285 284 284 284 283 284 284 284 284 285 284 284 285 286 286 285 284 283 280 280 279 279 280 280 281 281 281 282 282 282 282 281 281 283 283 282 279 277 277 277 276 274 272 271
282 281 282 282 283 284 284 284 284 284 285 286 286 286 286 286 287 287 287 286 286 287 287 287 288 288 288 286 286 285 286 287 287 286 285 284 284 284 284 285 285 284 283 283 283 283 283 283 283 283 283 283 283 284 286 285 285 284 282 280 280 279 278 278 278 279 280 281 281 282 283 283 282 282 283 281 280 278 276 275 275 274 273 271 270
281 282 282 282 283 283 283 283 283 284 285 286 286 286 286 286 286 286 286 286 287 287 288 287 287 287 287 286 285 285 285 286 286 285 284 284 284 284 284 284 283 283 282 282 282 282 281 281 282 282 282 282 282 282 283 285 284 283 283 280 280 279 278 277 278 278 278 278 279 281 283 284 284 283 282 281 280 278 275 274 274 273 271 270 270
281 281 283 282 282 282 282 283 283 284 285 285 285 285 285 285 286 286 285 286 287 287 287 287 287 286 286 285 284 284 284 285 285 285 284 283 283 283 283 283 282 282 282 282 281 281 281 281 281 281 280 280 281 281 283 284 284 283 283 281 279 279 278 277 277 277 277 278 278 279 280 282 282 282 281 281 280 279 277 274 274 273 272 272 271
281 282 281 281 281 282 282 283 283 284 284 285 285 284 284 285 285 285 286 287 287 287 287 286 286 285 285 284 284 283 283 284 283 284 283 282 283 283 283 283 282 282 281 281 280 280 280 279 280 280 280 280 280 281 281 283 284 283 282 281 279 278 278 277 276 276 277 277 278 278 278 280 281 281 280 280 279 278 277 274 275 276 275 273 269
279 280 281 281 281 281 281 282 283 283 284 284 284 283 284 284 284 285 287 287 287 287 286 285 284 284 284 283 283 283 282 282 282 283 283 282 282 282 282 282 282 281 280 280 279 279 278 278 278 279 280 280 280 281 282 282 283 283 282 282 281 280 280 278 276 275 276 277 277 277 278 279 280 279 279 279 278 277 275 274 275 274 273 271 268
279 280 280 280 280 281 281 281 282 283 283 283 283 283 283 283 283 286 286 286 286 286 286 284 283 283 283 282 282 282 282 281 282 283 282 282 281 281 281 281 281 280 279 278 278 278 277 277 277 278 278 279 280 281 282 282 282 283 283 283 282 281 280 277 277 276 276 276 275 276 277 279 278 278 278 277 276 275 274 274 273 272 270 268 262
278 279 280 280 280 280 280 280 281 281 282 282 283 282 282 282 284 285 286 286 286 285 284 283 283 282 281 281 280 280 281 280 281 282 281 281 280 281 280 280 280 280 279 278 277 278 277 277 277 277 277 277 278 280 281 281 282 282 283 282 282 281 280 279 276 276 276 276 277 278 278 277 276 275 275 274 273 273 273 272 271 269 266 260 261
278 278 279 279 280 279 279 279 280 280 281 282 282 282 281 282 284 285 285 286 285 284 283 282 282 281 280 279 278 279 279 280 280 281 281 281 280 280 279 279 279 279 278 277 277 277 277 277 276 276 276 276 277 277 278 279 280 280 281 281 280 280 278 278 277 277 278 278 277 276 275 274 272 270 268 267 266 267 269 269 268 265 261 260 259
277 278 278 278 278 278 278 278 278 279 280 281 281 281 282 283 283 284 285 285 284 283 282 282 282 281 279 279 280 279 278 279 279 280 280 280 280 280 279 279 278 278 277 277 276 276 275 275 275 275 275 275 275 275 275 276 277 278 278 278 278 278 278 277 274 273 273 272 273 272 272 273 271 271 269 268 266 265 263 262 261 261 258 259 260
277 277 278 277 277 277 277 277 277 278 279 280 280 280 281 282 283 284 284 284 283 283 282 282 282 281 280 280 280 279 279 279 279 279 279 279 280 280 279 279 278 278 277 276 276 276 275 275 274 275 274 273 274 274 274 274 274 275 276 275 274 273 271 271 269 268 267 267 266 267 266 263 262 262 261 259 260 260 260 259 259 258 257 260 264
276 277 277 277 277 277 277 277 277 278 278 279 279 280 281 281 282 283 283 283 282 282 282 282 282 281 280 280 280 280 280 279 279 279 279 280 280 279 279 280 280 280 279 277 276 276 276 276 275 274 274 273 273 272 273 276 275 277 275 273 271 270 269 268 268 269 264 263 263 262 261 260 259 260 259 259 258 258 258 258 257 257 257 256 258
276 277 276 276 276 276 276 276 277 277 277 278 278 279 280 281 281 282 283 282 282 282 282 282 282 281 281 281 280 280 280 279 279 278 278 279 281 282 281 280 279 281 281 282 281 277 277 277 275 275 276 275 274 274 277 278 278 278 277 275 273 273 272 271 273 271 266 262 261 259 259 259 259 259 259 258 258 257 257 257 256 261 258 258 258
276 275 275 275 276 276 276 275 276 277 277 277 278 278 279 280 281 282 282 282 282 282 282 282 282 281 281 281 281 280 280 280 279 279 279 279 279 281 283 283 282 282 283 282 281 280 279 278 277 275 277 279 279 279 279 279 279 279 278 277 276 276 276 275 273 266 261 260 260 259 258 259 258 257 258 257 257 256 257 256 256 256 257 258 259
Wind_Speed
5 7 7 6 7 6 6 5 6 6 7 8 9 10 11 12 9 12 10 9 10 9 8 8 9 8 7 10 11 8 8 8 9 9 8 9 8 9 9 9 8 8 9 8 9 8 8 6 7 6 7 7 8 9 7 8 7 7 6 5 7 7 6 5 4 4 5 9 4 7 7 6 9 5 5 4 5 5 3 4 3 3 4 3 4
6 9 9 6 7 7 6 5 4 5 8 7 10 12 11 10 11 12 8 10 11 11 10 10 10 10 10 10 9 8 8 9 10 8 10 8 8 8 8 8 9 9 7 7 8 8 8 8 9 9 7 7 7 7 7 6 7 6 4 5 4 7 7 5 4 4 3 4 6 8 4 3 2 1 2 3 3 3 3 2 2 3 3 4 3
10 9 8 7 8 8 7 6 5 6 7 6 9 8 9 10 11 11 9 10 11 11 10 11 9 8 9 8 8 7 6 7 8 8 7 9 9 9 9 9 9 8 8 8 9 10 10 9 9 7 8 6 7 7 7 8 7 8 7 8 5 4 5 2 5 8 5 2 1 3 6 7 5 4 2 2 2 2 1 0 1 1 2 2 2
11 10 9 8 6 7 7 8 7 5 6 6 6 8 8 9 10 11 11 11 9 10 12 10 9 8 8 6 4 7 7 6 7 7 8 8 10 9 9 8 9 9 9 9 9 9 9 10 8 7 8 8 8 9 8 9 8 8 8 8 7 8 4 5 5 7 6 3 4 4 2 1 7 1 3 4 0 1 1 0 1 2 1 1 0
10 12 13 12 11 10 8 9 8 7 6 6 6 6 7 10 11 11 10 10 10 9 11 8 6 5 5 3 3 3 3 4 4 9 9 8 8 8 9 8 10 10 9 10 9 10 9 9 8 8 8 8 8 9 9 10 10 9 9 9 9 10 8 4 4 6 7 7 6 1 1 1 6 2 3 4 1 2 3 1 2 2 2 3 2
7 12 13 12 12 12 10 8 8 9 9 7 5 7 7 9 9 9 9 9 10 10 10 8 8 8 7 8 9 9 10 8 11 14 8 9 10 7 7 9 9 9 9 10 10 9 9 9 8 9 9 8 9 9 8 7 8 9 10 9 10 9 8 5 5 3 7 9 9 7 5 4 1 2 3 4 3 4 4 1 4 3 3 4 4
14 13 15 17 17 16 15 13 11 11 12 9 7 7 8 9 8 8 9 9 9 8 9 8 9 9 12 12 12 11 12 12 11 7 6 6 5 7 8 7 9 10 9 10 10 10 9 9 10 10 10 9 8 8 9 10 8 9 7 8 9 7 7 10 10 4 2 6 7 8 7 4 2 1 5 1 6 1 0 2 2 4 4 4 4
12 15 17 17 17 16 18 17 13 13 12 11 10 8 8 9 8 8 7 8 8 8 9 10 11 11 11 12 11 11 12 14 7 7 6 5 6 7 6 7 8 9 10 10 10 10 10 10 10 9 9 9 7 8 10 8 7 6 7 8 7 8 9 10 8 6 8 4 7 8 8 6 4 4 4 7 7 8 7 2 2 5 4 4 4
14 15 17 17 18 18 17 18 17 14 12 12 12 12 10 8 8 6 8 8 7 8 9 10 11 11 11 10 10 10 11 11 7 6 5 6 8 6 7 7 8 9 9 9 9 10 9 9 9 9 9 9 7 8 9 8 9 8 7 8 9 9 9 9 7 8 7 7 5 6 6 7 6 7 6 6 7 5 9 6 5 1 1 4 5
14 14 14 16 16 16 15 14 17 15 12 12 12 11 11 8 6 6 7 7 7 7 9 9 11 9 10 10 12 11 9 9 7 8 6 6 7 7 7 7 7 6 7 8 8 9 9 9 9 10 10 9 8 9 9 9 9 9 9 9 9 10 8 8 10 8 7 6 8 6 6 5 6 5 6 7 7 9 9 4 3 5 6 4 3
13 14 15 15 14 14 15 17 17 17 13 13 13 13 12 10 7 6 7 6 5 7 8 10 9 9 10 11 12 12 11 8 8 9 8 7 8 8 8 6 5 7 7 8 9 9 9 10 10 10 9 8 9 10 10 10 9 9 9 8 9 10 8 9 8 8 7 7 7 7 8 8 8 7 7 7 7 5 5 6 5 6 7 6 5
13 13 15 16 18 20 19 20 20 19 17 17 15 15 14 12 10 10 7 5 5 6 7 8 8 9 10 10 12 12 11 9 10 11 9 9 9 9 7 5 6 6 6 7 8 9 9 9 9 9 9 10 11 10 10 9 9 9 8 9 9 10 10 10 9 9 10 8 9 8 8 8 8 7 7 8 8 8 8 6 6 3 2 5 3
13 13 13 14 15 16 17 17 18 19 17 16 15 14 14 14 14 12 11 6 6 5 6 6 7 9 10 12 12 11 11 11 10 11 9 9 8 7 6 7 6 6 7 8 8 10 9 9 9 10 10 10 11 9 9 9 9 9 9 9 9 10 10 10 10 11 11 10 9 8 8 8 8 7 7 7 7 6 6 6 6 4 5 2 1
13 13 13 13 14 14 13 13 14 15 17 17 15 13 13 12 13 14 14 9 7 6 6 5 7 7 8 9 9 8 9 9 9 10 10 8 7 8 8 9 8 9 8 9 9 9 8 10 10 10 10 9 10 10 10 9 9 9 9 10 10 10 9 11 10 10 9 10 8 8 8 8 8 8 8 7 8 6 6 7 6 4 4 5 2
14 14 14 14 15 14 13 13 13 13 15 15 14 14 13 13 13 14 15 14 12 10 7 6 6 6 6 6 7 7 8 8 9 8 8 8 8 8 8 7 7 8 8 9 6 8 9 9 9 9 9 9 9 8 9 8 8 8 8 9 8 7 9 9 9 9 9 10 10 9 9 8 8 8 8 8 8 9 8 7 6 5 2 3 4
16 15 16 17 16 14 14 14 14 13 14 13 14 13 13 13 12 11 9 10 10 10 10 9 8 7 5 6 7 6 6 6 7 7 7 8 8 7 8 7 8 7 6 6 7 7 8 8 8 9 9 8 8 9 9 8 8 8 8 8 9 7 9 10 9 10 11 11 11 10 9 9 8 8 8 9 8 7 7 6 7 7 6 4 1
16 16 15 16 16 16 15 14 15 15 15 15 14 11 11 13 13 15 15 12 9 8 8 7 8 8 8 7 7 6 6 7 8 8 8 7 6 7 7 8 7 6 7 5 6 5 7 7 7 8 8 9 9 9 9 9 8 8 8 9 9 8 9 10 9 9 9 10 9 10 9 8 8 8 7 6 7 6 7 7 7 8 6 4 2
14 15 16 16 15 17 17 16 15 16 15 15 16 13 10 9 10 13 13 15 15 12 10 8 8 8 7 7 7 7 7 7 7 7 6 6 6 6 6 7 8 7 6 6 6 6 6 7 8 8 8 8 9 8 8 9 8 8 9 9 9 8 9 8 8 9 9 8 8 8 8 8 7 7 7 7 6 6 6 6 5 5 5 6 5
17 17 17 18 18 18 17 17 17 16 16 14 14 13 13 13 10 7 11 11 11 10 10 9 5 6 5 6 7 7 6 6 7 7 7 7 7 6 7 8 7 7 7 7 6 7 7 7 8 8 8 9 8 9 9 9 9 9 9 8 8 8 8 8 8 8 8 8 8 9 8 8 6 4 4 4 3 4 3 3 3 3 1 3 5
16 16 15 16 17 17 16 16 17 17 15 15 15 15 16 14 13 14 12 9 10 11 9 10 9 8 9 7 5 5 6 6 7 7 7 7 7 6 7 6 7 6 6 6 7 7 7 8 8 9 8 8 8 8 8 8 8 9 8 8 8 9 9 9 8 7 7 8 9 8 5 3 5 5 5 4 5 4 5 5 5 5 4 4 1
16 16 15 16 17 18 18 17 15 14 13 13 14 14 14 13 15 14 14 15 12 10 9 8 7 7 8 9 9 7 7 6 6 6 7 7 7 6 6 6 5 6 5 7 7 7 8 8 8 8 9 9 9 8 7 7 8 8 8 8 8 9 9 8 8 8 7 6 5 5 5 6 6 7 6 5 6 6 6 6 5 5 5 5 4
14 15 16 16 16 18 18 18 17 17 18 19 17 16 16 16 15 14 15 13 12 12 8 9 7 7 7 7 7 7 6 6 6 5 6 6 6 7 7 7 7 7 5 7 7 7 7 8 8 9 8 8 8 8 7 7 8 8 8 8 8 9 9 8 7 6 5 5 6 8 7 7 7 9 7 6 5 5 6 7 6 5 5 4 4
14 15 15 16 16 15 15 17 18 18 18 18 18 17 16 16 16 15 15 17 13 12 9 8 8 8 8 6 6 6 6 7 7 6 6 6 6 6 5 6 7 7 6 6 7 7 7 7 8 8 7 7 7 7 7 8 8 9 9 9 9 9 9 8 7 6 7 8 9 9 8 7 7 10 8 7 7 7 6 7 6 4 6 5 4
12 13 13 14 14 15 17 18 19 19 19 19 17 17 17 16 15 15 17 17 16 14 12 10 9 9 7 7 7 6 7 6 7 6 7 6 6 6 6 6 6 6 6 6 6 7 7 8 8 7 7 7 7 7 7 8 9 9 9 9 7 5 5 6 7 8 8 9 11 10 7 6 8 10 6 7 7 7 7 4 4 4 6 6 5
13 14 16 16 16 17 17 18 17 18 18 18 18 18 17 17 15 16 16 15 14 14 14 13 11 11 10 7 8 6 7 7 7 6 7 7 6 6 6 6 6 5 6 5 6 6 7 7 8 7 7 7 7 7 7 8 7 5 5 6 6 7 7 7 7 8 7 9 9 11 9 8 10 9 7 6 6 9 6 4 6 7 7 5 4
15 15 16 18 16 14 15 18 17 17 17 18 19 19 18 18 17 14 15 17 17 14 13 14 13 12 12 10 8 7 7 7 7 7 6 6 6 5 5 5 4 6 5 4 5 5 5 6 5 5 5 6 6 6 6 5 6 7 7 8 9 9 9 10 9 9 9 8 10 9 9 10 11 11 8 7 7 9 7 7 7 7 6 5 6
17 16 15 15 18 19 16 15 15 17 18 17 18 19 19 20 21 18 15 14 15 15 15 14 14 13 12 11 9 8 7 6 6 7 6 5 5 5 5 4 4 3 3 3 3 3 2 3 3 4 4 5 5 5 6 7 7 8 9 11 11 12 11 11 10 9 10 9 9 10 8 7 10 9 8 7 7 8 7 7 6 6 4 6 6
17 19 19 18 17 17 19 18 17 16 18 19 17 17 18 18 19 20 19 16 14 15 16 15 14 14 13 12 9 7 6 6 5 5 6 4 4 4 4 4 3 2 2 2 2 2 2 1 2 2 2 3 6 7 8 9 9 9 10 10 11 13 13 13 12 10 10 10 10 9 6 6 8 8 7 7 8 7 7 8 4 5 4 7 6
18 19 20 20 19 18 18 19 18 18 19 20 20 19 18 19 19 17 17 19 17 16 16 16 15 14 14 11 9 7 5 5 5 4 5 5 4 3 3 3 2 2 2 1 2 2 2 2 3 4 4 4 5 6 7 10 11 10 11 13 11 12 12 15 14 12 10 10 10 10 10 9 11 15 15 10 7 4 6 9 4 5 5 7 6
17 18 19 20 20 19 19 18 18 19 20 19 19 20 21 19 19 18 19 18 17 19 17 17 17 15 13 10 8 6 5 4 4 4 4 4 4 3 2 2 2 2 2 2 2 3 3 3 4 5 5 5 5 5 9 13 12 13 12 11 10 12 12 12 14 12 12 11 11 11 10 16 18 16 15 15 15 14 12 9 6 6 6 7 6
18 18 19 19 20 20 20 20 19 19 18 18 18 18 19 21 20 19 18 17 17 18 19 16 17 16 13 11 8 7 4 4 4 3 3 4 4 3 2 2 2 2 2 2 2 3 3 3 4 5 6 5 5 6 13 18 18 17 15 14 14 11 12 12 13 14 11 8 8 7 7 11 13 11 12 15 15 15 16 16 15 13 8 6 6
19 18 18 19 20 21 21 20 20 19 18 17 18 18 17 18 20 20 20 19 18 18 19 19 17 16 14 12 9 7 5 5 3 3 2 3 2 2 2 2 2 2 2 2 3 3 3 4 5 5 6 6 7 10 14 16 19 19 14 13 14 13 10 11 12 11 8 9 8 9 8 7 7 8 8 9 11 15 16 16 16 16 16 16 12
20 19 19 18 18 18 20 20 19 18 18 18 17 17 18 17 18 19 18 18 19 18 18 19 18 16 15 12 9 8 6 5 4 2 1 1 1 1 1 1 2 2 2 3 2 4 3 3 6 7 8 7 8 12 16 16 18 21 20 16 12 12 12 11 10 9 10 9 8 9 9 7 7 9 8 7 8 10 13 16 15 16 16 15 15
17 17 18 18 18 18 18 19 19 19 17 17 17 16 17 15 14 15 18 19 18 18 17 17 17 16 13 11 9 7 7 5 3 1 1 0 0 0 1 1 1 3 3 3 3 4 4 5 6 8 9 8 8 11 12 15 15 16 17 16 12 12 12 10 9 10 9 8 7 9 9 8 6 7 6 7 7 8 8 8 8 7 7 11 14
17 19 19 18 19 20 20 21 20 19 18 18 18 17 17 17 14 15 16 17 18 18 18 16 16 16 13 11 9 8 7 4 3 2 2 1 1 1 0 0 2 3 4 4 3 4 5 5 7 7 9 9 9 14 13 16 17 19 19 15 12 11 11 10 10 10 9 8 7 8 9 9 8 7 6 7 7 7 7 6 7 8 8 8 8
17 18 19 19 19 19 20 20 19 18 18 16 17 17 17 18 15 13 15 15 16 18 18 16 16 15 13 11 9 9 7 4 4 3 3 3 2 2 2 2 3 4 5 5 5 5 5 6 7 8 10 10 9 12 14 18 20 22 19 12 11 12 12 11 10 9 8 7 7 8 9 9 9 8 10 11 8 5 6 7 7 7 8 8 8
16 17 18 18 18 18 18 18 18 18 17 17 17 17 17 18 17 15 14 15 14 16 17 17 16 15 14 11 8 9 8 6 5 5 4 4 4 3 3 2 5 5 6 6 6 5 4 7 8 8 11 11 11 11 12 15 18 19 14 11 11 11 11 11 10 8 8 8 8 8 8 8 9 8 10 12 11 8 7 7 7 7 6 6 5
14 15 16 17 17 18 18 17 18 19 18 16 17 18 18 18 17 16 15 16 15 15 15 15 17 16 14 11 9 8 9 7 5 6 6 5 3 3 3 2 4 6 6 6 6 7 6 6 9 9 9 11 10 11 13 15 15 13 11 12 10 11 11 11 9 9 8 9 9 10 7 8 9 9 12 12 11 7 7 7 7 7 5 4 5
14 15 17 18 18 18 19 18 18 19 20 19 19 19 18 18 17 17 15 16 16 15 14 15 17 17 15 11 9 9 8 7 7 6 6 7 6 5 3 3 4 5 6 6 7 8 6 6 6 7 11 12 11 11 13 15 16 14 10 9 10 11 11 9 8 9 7 7 7 9 12 11 10 12 15 13 12 9 7 6 5 6 5 6 5
17 15 14 16 16 17 20 20 20 19 19 19 19 18 19 18 18 16 16 17 16 15 15 15 15 15 14 11 8 9 9 8 7 6 6 6 6 5 5 6 6 6 7 7 8 8 7 6 6 6 6 6 10 9 10 15 16 16 13 10 8 12 12 10 7 8 8 7 7 7 11 16 16 16 15 15 14 13 8 6 5 6 6 5 3
17 17 16 15 15 15 17 19 18 18 17 17 18 18 19 18 18 17 18 18 16 15 15 15 15 14 13 12 9 8 9 8 6 7 6 6 7 7 7 7 8 7 8 7 6 7 8 7 7 6 6 6 6 8 9 14 15 14 13 9 8 7 8 9 9 8 7 8 7 7 7 13 16 16 16 16 16 15 12 8 8 7 6 4 4
14 18 17 15 16 16 19 20 19 19 19 17 17 19 20 19 18 19 20 18 16 16 15 15 16 15 13 11 10 9 7 6 5 6 7 6 6 7 7 7 7 9 11 10 8 6 8 7 7 7 7 7 7 9 7 11 14 14 13 13 8 7 8 11 11 8 8 8 8 7 6 11 15 16 16 16 16 14 14 9 9 12 11 9 4
17 17 17 16 16 17 18 19 19 18 17 17 19 21 20 19 20 22 20 18 17 16 15 15 15 15 13 11 9 9 8 5 6 6 8 8 7 8 8 7 8 9 10 8 7 9 10 10 8 7 6 7 7 7 11 10 14 16 16 16 16 11 12 8 10 9 9 9 7 8 10 15 15 16 16 16 15 16 12 10 13 12 11 11 7
14 15 16 17 16 16 18 18 18 17 17 17 17 20 21 21 22 20 18 18 18 16 15 15 14 13 12 10 8 8 7 5 6 7 7 8 8 8 8 8 8 9 10 9 9 9 10 10 9 7 6 5 6 6 10 12 13 18 17 17 15 14 12 8 8 9 9 9 7 7 9 16 16 17 18 17 17 14 11 13 12 13 11 9 4
13 14 15 14 16 18 18 18 17 19 18 16 16 18 22 24 22 19 19 19 18 18 16 16 16 13 11 9 7 6 6 6 6 8 9 8 9 9 9 7 8 8 9 10 9 10 12 13 11 8 7 5 4 5 7 11 15 16 18 17 16 16 15 15 11 9 8 9 13 17 17 16 16 16 17 16 14 14 15 14 13 12 8 4 5
13 14 14 15 16 17 17 19 20 19 18 16 16 16 21 23 21 20 19 18 18 18 18 18 16 13 11 8 6 6 6 6 7 7 9 10 12 11 10 9 8 8 8 9 9 8 8 10 10 9 8 7 5 5 6 8 8 11 13 17 17 16 15 15 15 13 18 20 19 18 18 16 14 12 8 7 6 8 13 14 13 9 4 5 3
14 14 13 13 13 16 17 18 19 19 17 17 17 17 17 19 20 20 19 18 18 18 18 17 15 13 9 6 7 6 6 6 7 6 6 7 8 8 9 10 9 10 9 9 10 9 9 9 11 11 8 7 5 5 5 5 5 7 8 11 11 12 17 17 12 10 11 10 11 11 11 14 14 16 14 11 10 8 7 7 6 5 4 3 3
13 14 13 12 14 15 17 18 19 18 17 17 17 18 18 19 19 18 18 18 18 17 17 17 16 12 9 7 7 8 8 7 7 8 8 8 7 8 10 12 12 12 12 10 10 10 11 11 11 10 10 7 6 4 6 8 7 7 6 6 6 7 7 7 10 8 8 8 9 10 11 7 7 7 6 5 5 5 6 5 4 3 4 4 4
14 14 13 14 13 15 17 17 18 17 16 16 17 18 17 19 18 18 17 17 18 18 18 17 14 10 9 7 7 6 7 7 7 7 6 7 9 10 9 7 5 7 9 12 11 7 7 8 10 12 12 9 8 9 7 8 8 9 9 9 8 5 6 6 9 15 11 8 8 8 7 6 5 5 5 6 5 5 5 5 3 3 4 3 2
13 13 14 15 14 14 15 17 17 16 16 16 17 18 17 17 17 17 16 17 18 17 17 16 12 10 8 7 6 7 7 7 7 7 6 3 4 4 2 5 6 7 9 3 1 7 11 12 9 4 3 10 13 11 18 18 14 13 13 12 12 13 13 12 15 15 9 9 7 7 5 5 4 5 6 5 5 4 5 5 5 3 3 2 3
13 13 15 15 16 15 15 17 18 17 16 16 16 18 18 18 17 16 16 17 17 16 15 14 12 10 8 8 7 7 7 6 6 7 6 7 6 5 9 10 7 7 7 10 11 11 9 8 9 10 10 17 19 22 20 18 17 15 16 17 17 17 18 18 16 11 8 6 6 7 5 5 5 6 6 5 3 3 3 2 3 2 1 2 3
Wind_Direction
286 293 292 302 308 308 301 280 255 247 237 226 224 224 224 222 215 225 216 208 211 208 203 198 204 210 219 222 228 221 224 226 232 229 229 230 221 219 220 222 219 217 217 214 222 223 228 226 222 223 215 216 223 230 222 225 219 219 225 212 230 250 252 210 229 208 276 289 256 265 274 247 245 259 257 263 258 262 255 257 261 266 262 248 252
322 331 332 344 339 331 327 309 286 266 250 231 228 229 227 222 220 227 208 212 213 211 208 207 207 204 204 217 221 223 223 220 234 228 229 229 225 223 222 222 221 221 216 214 221 220 225 224 225 226 215 221 226 230 227 224 220 218 208 244 207 231 250 180 206 128 255 250 316 319 280 279 303 259 302 289 293 283 272 261 257 251 260 251 255
333 331 332 341 336 334 337 323 297 259 273 245 239 240 233 224 228 227 216 216 215 211 208 215 206 207 205 213 204 223 223 225 231 232 227 227 225 222 221 220 218 222 213 209 218 221 224 225 228 221 220 211 222 230 225 228 215 217 205 221 238 229 241 195 181 187 229 132 167 358 314 5 329 358 329 289 275 290 336 305 266 242 252 251 253
336 331 325 325 328 321 325 324 314 297 274 269 252 236 236 232 230 226 223 220 221 215 216 218 207 204 211 211 206 205 218 217 232 235 231 227 230 220 223 218 217 222 213 215 221 225 223 227 226 218 220 209 217 227 223 227 214 218 212 218 215 251 211 238 199 197 187 123 297 214 227 105 313 326 323 286 10 253 360 273 216 230 278 300 248
333 335 338 337 333 328 318 307 312 309 291 274 264 245 233 234 231 227 225 222 220 217 217 215 201 192 191 194 206 258 278 246 241 243 227 229 237 223 224 210 217 220 217 219 219 225 223 226 223 224 220 215 215 225 226 222 215 214 208 211 205 223 244 218 234 195 200 196 180 108 311 343 233 253 316 279 356 150 243 230 207 233 265 297 310
335 337 335 330 328 325 323 314 316 311 306 293 275 264 252 247 238 229 226 223 221 216 207 198 205 201 185 196 213 221 235 221 227 234 218 220 228 225 222 213 214 219 217 219 220 220 224 222 224 224 224 221 218 227 232 229 221 213 209 207 216 211 227 230 235 203 209 206 217 219 182 228 235 246 37 298 306 235 251 249 213 237 254 275 297
357 358 355 353 347 342 336 335 329 321 314 312 304 282 268 257 247 229 224 225 221 216 198 193 203 208 208 211 214 215 226 235 234 239 231 229 215 217 219 206 210 214 219 218 220 219 221 220 220 222 224 223 217 221 229 227 224 220 204 207 216 201 199 235 234 195 201 235 225 233 246 250 180 232 250 316 307 328 51 162 238 246 257 279 272
2 357 356 355 352 350 341 333 332 324 315 316 312 301 283 272 256 236 228 226 218 210 197 195 203 208 213 219 220 222 222 241 227 233 224 221 220 218 209 212 207 210 215 216 218 217 218 223 222 225 227 228 215 221 230 229 226 222 206 210 210 203 201 220 233 188 199 217 197 223 237 245 237 227 215 234 264 286 281 297 256 254 273 260 251
3 359 354 351 352 348 347 340 333 329 329 325 319 310 301 288 270 249 234 226 224 207 204 201 207 208 212 219 226 229 231 239 236 223 209 208 228 218 212 212 211 212 214 215 213 216 215 221 220 223 225 226 214 228 232 227 224 219 206 205 208 210 208 216 219 218 196 212 159 215 217 224 225 221 229 221 236 248 274 261 266 297 208 264 257
358 356 351 349 350 349 345 339 347 345 334 326 320 315 311 304 286 266 247 233 224 210 207 210 208 209 215 219 226 236 234 244 237 241 228 214 229 227 223 218 214 211 215 217 217 214 216 214 218 221 222 220 213 222 227 227 224 221 217 213 209 214 210 207 216 218 206 208 201 185 182 205 216 215 212 221 230 230 259 251 282 282 289 288 276
354 350 350 346 343 346 350 353 349 349 347 343 337 333 326 324 308 279 262 254 229 216 205 213 207 207 218 220 225 234 235 235 238 243 238 234 235 237 230 227 209 215 207 213 215 213 216 215 218 221 221 218 218 222 225 223 221 219 218 212 210 211 208 209 219 221 215 212 210 201 207 196 199 202 197 204 216 223 229 242 233 227 233 256 259
351 353 350 347 348 352 354 354 350 344 349 352 346 343 342 336 333 312 292 265 256 232 212 213 206 211 216 220 226 229 231 230 232 242 235 237 237 243 236 221 221 217 211 213 216 210 214 216 217 216 217 214 221 220 223 215 218 216 211 209 214 207 209 206 206 212 214 219 212 208 213 210 213 212 205 203 204 219 221 236 229 219 256 235 287
354 353 350 350 350 350 351 346 346 347 344 343 342 342 345 346 347 336 327 329 292 272 235 223 215 214 212 218 225 226 228 229 231 238 237 232 231 236 232 230 221 220 216 218 219 210 211 214 214 215 219 219 223 219 223 214 214 215 213 212 211 206 207 205 207 211 207 212 213 211 213 213 217 214 215 213 217 222 216 239 235 209 223 244 277
355 350 350 349 347 346 346 343 341 339 341 341 341 343 342 343 349 349 338 340 335 326 306 278 245 235 227 228 230 228 235 234 234 237 241 235 224 229 225 227 225 225 221 219 219 213 211 216 217 220 219 220 218 220 220 216 212 213 212 212 212 212 203 207 212 211 210 213 210 212 213 215 216 213 217 214 215 213 224 228 237 216 203 223 241
352 348 346 345 344 345 344 341 339 338 338 340 342 342 339 344 348 347 343 346 345 335 329 315 301 294 274 255 245 235 237 237 238 238 245 243 233 233 238 232 231 233 223 231 213 214 216 216 219 222 221 221 220 219 219 218 212 212 213 214 213 206 205 205 210 206 210 210 211 213 214 215 216 215 214 218 213 216 217 215 213 230 232 216 229
346 345 343 344 344 344 344 343 339 339 339 338 342 341 341 339 337 337 335 334 341 347 346 335 320 313 304 288 276 268 261 258 257 248 248 246 252 241 247 240 240 242 240 231 225 217 218 219 218 222 222 222 220 217 214 213 210 209 213 208 214 199 206 205 207 205 212 210 213 214 215 218 215 217 216 218 214 213 215 210 205 213 217 246 191
344 342 340 339 342 343 343 342 340 341 341 338 334 337 333 333 337 338 339 338 346 346 336 338 333 333 319 309 299 284 268 255 256 261 257 261 258 258 254 253 252 240 244 234 239 224 225 220 222 224 223 222 220 216 212 211 205 206 209 209 213 200 205 208 203 206 211 212 213 212 214 214 217 219 219 215 215 214 217 216 206 206 191 194 180
337 337 340 341 343 344 343 342 342 339 337 334 334 333 331 328 332 335 335 339 335 339 338 338 334 331 326 324 318 312 306 298 288 276 273 267 258 251 251 255 249 248 238 238 226 230 227 223 225 226 223 221 220 216 211 209 203 207 208 210 209 198 205 209 206 208 211 211 212 212 213 215 218 212 214 208 209 209 207 202 195 193 175 199 197
348 348 345 344 344 343 343 340 338 339 337 335 333 336 336 340 339 334 324 323 319 321 327 328 332 323 316 316 317 314 309 303 297 295 296 283 274 265 257 255 263 252 249 243 235 234 226 226 224 230 224 223 219 217 210 209 202 207 204 206 202 196 202 207 207 206 209 205 209 215 214 218 205 172 134 120 119 132 130 116 107 95 99 227 191
346 348 347 343 342 343 343 343 342 340 338 337 337 340 344 342 339 337 329 323 323 324 326 325 328 330 324 320 312 307 304 301 299 302 294 281 277 279 278 276 263 264 254 251 243 240 234 234 230 228 227 224 221 220 210 209 204 210 203 204 198 196 203 207 208 207 206 207 212 214 195 145 120 113 101 93 92 88 104 108 102 100 82 51 49
348 348 348 348 346 345 345 346 344 342 343 346 347 344 337 339 340 339 335 327 324 313 312 304 314 315 320 318 315 316 307 309 308 302 295 293 292 287 280 275 294 272 263 253 247 241 240 238 237 232 229 226 222 219 206 205 206 208 204 201 196 197 204 206 204 206 209 205 182 131 112 109 114 104 93 88 83 73 70 76 77 84 76 39 51
349 349 349 350 350 347 346 347 349 350 350 349 347 345 346 343 338 334 333 331 327 321 309 301 296 288 279 298 303 304 302 305 295 287 292 286 287 291 294 300 287 284 277 269 258 249 241 240 237 236 231 228 222 217 203 200 204 204 204 197 199 199 202 203 195 194 168 129 123 116 96 88 93 98 92 77 74 77 79 79 54 71 70 63 14
346 348 349 349 348 348 346 347 348 349 347 347 346 346 342 339 339 336 333 328 328 317 306 293 291 297 299 291 293 288 292 286 280 277 284 276 271 272 267 268 277 282 274 261 263 258 253 242 238 234 228 223 215 211 201 198 202 200 199 200 199 196 195 188 175 154 136 125 112 109 109 112 105 91 78 74 67 69 66 78 77 66 84 62 29
348 347 348 350 347 346 350 351 350 350 348 346 342 341 339 339 339 334 333 328 327 326 320 311 301 296 293 295 290 293 282 281 292 293 288 279 268 263 255 254 255 256 265 266 256 258 254 244 236 231 221 215 208 203 198 199 200 200 202 195 185 176 163 147 136 129 130 129 126 115 110 110 108 94 83 82 75 71 63 64 87 76 81 69 37
353 351 349 347 351 352 349 347 347 345 344 343 342 340 338 335 338 337 330 326 324 324 323 318 310 303 300 297 296 294 288 290 286 288 288 290 285 278 268 258 256 250 250 260 265 247 247 241 230 221 212 206 202 195 193 198 198 181 151 123 113 107 99 93 96 104 110 118 116 115 116 110 102 93 79 74 81 83 88 97 83 65 73 71 60
349 351 352 350 345 345 346 345 343 343 342 341 340 338 335 334 333 336 331 330 327 323 321 318 315 308 301 299 295 298 292 289 290 288 290 296 296 293 290 281 272 268 263 263 262 249 232 235 229 217 205 197 190 187 179 157 129 116 105 98 94 87 84 85 81 82 88 74 104 106 107 108 95 97 100 99 98 103 94 82 83 83 80 80 76
346 346 346 346 346 344 342 342 340 338 340 339 338 336 335 334 332 334 335 329 324 322 321 321 314 307 300 296 296 290 286 288 288 288 293 298 303 304 308 304 310 292 290 280 291 281 266 202 209 192 185 167 146 129 118 111 107 106 109 108 100 93 87 85 79 76 80 81 78 84 84 92 103 108 112 108 106 97 99 89 86 94 93 91 79
344 344 345 344 341 340 339 338 339 339 336 336 337 334 332 332 330 330 331 331 328 325 321 319 314 308 299 293 291 289 285 282 284 288 294 301 310 318 321 319 324 340 331 334 327 313 321 41 101 107 110 126 130 126 119 111 106 110 107 99 107 108 101 92 87 83 82 82 80 73 68 63 80 94 108 106 100 112 105 93 84 95 99 88 80
346 341 339 339 339 337 336 336 335 336 338 337 334 333 333 332 330 329 328 329 327 324 321 317 313 304 298 293 291 288 282 283 284 288 298 308 310 317 325 331 342 343 348 349 27 26 23 27 45 59 64 69 94 109 125 126 118 105 102 106 107 110 109 109 102 95 86 83 83 85 76 77 87 90 86 88 96 99 109 104 92 95 92 91 84
344 339 336 334 334 334 333 334 335 336 336 335 334 331 330 329 326 327 327 326 329 322 320 316 311 304 299 293 284 280 281 284 286 285 298 308 313 321 333 345 352 345 348 5 39 57 68 67 73 69 66 78 88 90 108 107 114 120 111 106 103 100 101 106 112 107 96 91 92 92 89 88 83 84 90 92 92 90 86 93 109 97 93 90 91
341 338 335 332 331 332 332 332 333 334 333 330 328 326 325 324 325 325 323 323 323 318 317 314 308 305 302 297 289 277 276 275 273 302 308 304 311 323 344 357 355 1 2 356 38 83 76 65 79 93 89 76 85 106 121 117 116 115 118 118 109 103 106 109 107 106 108 105 89 80 86 80 84 88 89 91 91 89 88 87 86 86 86 95 100
338 335 333 333 331 330 330 330 329 329 329 329 327 324 322 320 321 322 322 321 320 318 317 314 312 310 306 301 292 281 272 263 271 268 293 311 324 338 352 360 6 10 358 26 55 47 81 99 90 82 84 89 93 109 113 118 116 113 113 112 114 116 113 108 112 105 104 102 105 99 85 83 84 89 90 89 86 83 84 84 82 80 78 73 71
334 332 331 330 328 326 324 324 325 326 326 324 322 319 317 317 318 316 317 317 317 316 315 314 313 312 306 302 288 277 267 259 248 242 311 341 321 344 353 11 18 354 24 51 54 76 56 77 106 103 98 94 105 119 119 109 108 116 117 114 113 115 115 114 115 110 104 104 106 99 96 86 89 86 88 87 88 84 81 81 77 76 72 69 67
325 325 326 326 325 323 321 319 318 318 320 319 318 315 311 311 311 312 315 314 314 314 314 312 310 307 303 296 283 268 260 253 235 186 120 62 346 347 352 359 57 57 67 60 62 75 78 83 96 105 104 101 102 114 98 101 106 108 108 106 111 111 106 108 107 97 95 99 105 109 108 98 86 78 79 87 90 90 91 86 82 76 70 60 56
323 323 324 324 322 321 320 320 321 321 321 322 318 317 315 313 317 315 312 312 313 312 311 311 308 306 305 295 280 264 254 241 208 169 138 135 149 210 99 51 90 90 90 81 77 90 82 87 92 97 102 100 104 104 99 105 106 102 96 98 105 104 103 97 91 91 96 103 103 102 99 97 93 84 79 88 94 101 103 91 81 78 73 65 50
320 320 318 320 320 318 317 315 316 317 317 316 313 314 315 312 315 312 308 308 308 309 308 311 310 309 305 294 278 267 255 233 196 172 165 167 182 210 176 163 113 98 92 93 75 73 87 92 93 103 105 100 96 94 106 108 108 107 107 103 106 103 99 95 88 87 90 86 88 90 95 96 96 94 98 99 101 104 94 96 99 95 78 59 48
313 314 312 312 313 313 314 313 313 314 315 314 314 314 313 313 314 314 311 307 307 306 308 311 310 309 305 293 274 264 253 228 201 183 180 179 176 187 197 188 126 119 110 99 99 89 91 102 103 103 108 107 107 104 98 105 106 110 108 109 106 102 99 96 94 91 86 82 80 81 88 96 97 95 99 97 95 95 99 102 97 90 84 73 47
307 309 309 312 313 313 313 314 312 312 313 313 314 314 314 313 312 312 314 310 309 305 306 309 309 309 304 292 271 254 250 229 206 196 185 173 164 186 189 200 137 129 113 110 107 97 77 90 109 111 112 116 114 108 99 97 99 105 110 113 113 108 102 101 96 87 86 85 79 77 84 95 97 94 93 90 87 87 88 89 92 94 84 64 36
312 312 312 312 314 314 312 313 314 314 317 317 315 314 314 313 312 314 313 309 307 307 310 311 309 307 302 286 266 254 244 232 213 198 177 169 173 172 174 132 115 110 109 105 101 101 88 72 61 93 117 118 117 110 104 105 107 109 107 114 118 115 107 100 99 94 82 87 92 91 91 92 95 95 91 89 86 83 83 76 86 96 84 61 34
314 312 310 310 312 316 317 317 317 315 316 316 316 315 313 312 312 314 312 308 308 309 307 305 303 300 297 285 259 249 241 230 216 185 170 168 155 150 159 142 126 122 118 113 109 98 82 70 58 73 84 95 110 110 110 116 121 124 128 128 131 119 114 109 99 107 105 86 81 84 89 93 93 93 90 87 83 80 80 78 75 76 78 68 50
313 312 315 315 316 316 313 312 312 314 316 316 315 314 313 313 312 313 310 308 308 307 307 306 304 300 292 281 264 245 239 229 214 183 169 157 159 160 154 149 137 128 118 107 95 101 92 82 65 54 70 60 72 100 107 114 118 122 127 127 124 102 112 116 117 107 96 103 99 90 85 95 95 92 88 85 83 80 80 79 74 75 77 92 81
310 313 317 319 318 317 315 315 316 317 318 317 316 314 312 313 313 310 308 309 309 308 308 307 305 301 290 276 264 251 238 228 199 169 162 163 162 153 153 152 145 139 132 124 125 114 109 102 89 78 69 71 60 71 88 93 101 102 101 104 92 88 111 117 109 104 103 101 100 100 96 99 96 92 88 86 83 81 78 75 75 78 75 70 61
317 318 317 319 319 317 316 314 315 317 318 318 317 313 311 312 310 308 308 310 309 308 307 306 303 298 289 274 262 247 232 216 194 182 166 163 162 158 155 155 150 141 133 126 121 123 117 113 107 94 86 81 84 80 94 96 96 100 102 98 102 105 110 104 114 114 114 112 103 101 101 101 97 94 90 87 83 78 72 72 73 70 68 61 53
311 313 315 320 317 316 315 316 316 317 318 318 317 313 312 312 308 308 308 308 309 308 308 305 302 295 287 275 257 245 231 211 192 175 169 162 163 163 159 157 157 147 141 135 136 133 124 116 109 104 95 92 92 97 92 101 105 101 95 99 101 104 108 105 104 110 113 111 107 99 107 106 100 94 88 82 78 75 75 73 68 65 59 57 48
308 311 313 316 316 316 315 315 316 316 318 317 316 313 311 310 309 312 309 310 309 310 308 305 302 296 285 272 255 238 222 206 197 177 168 168 163 165 160 166 155 154 151 149 152 153 143 137 126 120 114 98 82 90 95 89 93 98 102 104 106 107 109 109 103 106 106 112 112 111 107 100 94 87 81 76 71 70 69 66 64 61 56 43 50
310 312 317 315 314 313 313 315 316 318 318 317 316 314 310 307 309 310 309 309 308 308 307 304 300 294 283 265 247 236 223 209 198 192 184 175 171 172 168 165 162 159 158 156 155 156 144 135 127 127 128 125 111 101 91 95 94 99 102 108 111 112 111 110 110 114 114 110 107 102 93 85 79 77 71 68 67 67 64 61 57 52 38 43 48
307 306 310 312 313 312 312 314 314 316 318 316 315 312 307 307 308 309 309 309 308 306 303 301 296 292 279 254 234 223 211 208 198 191 186 181 178 175 168 166 169 163 161 164 161 157 148 142 139 138 129 131 127 113 108 103 102 110 111 114 113 112 113 109 102 93 96 96 94 93 93 92 88 82 80 79 79 68 60 51 41 34 30 24 30
302 304 307 307 306 306 308 312 313 315 316 314 313 311 310 309 307 308 309 309 307 305 303 301 296 288 275 245 237 220 210 199 199 188 181 183 188 181 177 174 175 172 163 167 167 163 157 153 146 141 134 123 124 129 127 135 132 123 123 110 106 119 121 125 115 102 95 92 90 85 76 63 74 74 73 65 54 56 57 53 38 29 20 9 28
302 302 305 303 301 301 302 306 307 311 313 312 311 309 310 309 308 308 310 309 306 304 302 298 293 284 266 246 234 223 211 202 196 200 201 199 188 182 180 182 186 175 164 158 155 150 159 162 152 151 146 139 146 147 147 139 138 143 139 137 137 131 121 104 124 124 109 94 87 79 77 68 63 82 67 59 49 48 44 37 32 32 17 8 27
294 297 298 296 295 297 302 304 305 309 312 312 310 309 308 308 307 308 309 308 307 305 303 298 293 278 265 246 230 223 217 206 197 187 175 130 60 112 148 173 166 161 162 132 329 173 167 158 148 135 159 170 165 155 144 144 147 147 141 133 130 132 133 133 130 117 108 95 85 91 80 90 77 75 70 58 49 35 31 22 8 26 22 19 28
293 297 295 295 297 299 300 302 306 311 311 311 309 308 307 306 307 307 309 306 306 304 299 296 291 278 259 241 230 222 211 205 197 186 172 158 136 91 92 93 94 121 113 113 108 100 120 143 143 133 99 92 111 128 134 138 142 144 137 134 136 138 134 129 124 106 61 90 114 99 95 85 82 80 77 68 57 49 36 27 360 343 346 19 13